Regional Weather Roundup
Issued by NWS

Home | Current Version | Previous Version | Graphics & Text | Print | Product List | Glossary On
Versions: 1 2 3 4 5 6 7 8 9 10 11 12 13 14 15 16 17 18 19 20 21 22 23 24 25 26 27 28 29 30 31 32 33 34 35 36 37 38 39 40 41 42 43 44 45 46 47 48 49 50
000
ASUS43 KMKX 221420
RWRWI

WISCONSIN REGIONAL WEATHER ROUNDUP
NATIONAL WEATHER SERVICE MILWAUKEE/SULLIVAN WI
900 AM CDT SUN APR 22 2018

NOTE: "FAIR" INDICATES FEW OR NO CLOUDS BELOW 12,000 FEET WITH NO
SIGNIFICANT WEATHER AND/OR OBSTRUCTIONS TO VISIBILITY.

WIZ001-002-006>008-014>016-023>028-221500-
NORTHWEST WISCONSIN

CITY           SKY/WX    TMP DP  RH WIND       PRES   REMARKS
SUPERIOR ARPT  FAIR      39  31  71 CALM      30.39S
ASHLAND        FAIR      45  19  35 CALM      30.39R
HAYWARD        FAIR      44  24  45 N3        30.38F
SIREN          FAIR      44  28  53 CALM      30.38S
CUMBERLAND     FAIR      36  25  64 CALM      30.38S
RICE LAKE      FAIR      38  28  66 CALM      30.40S
CHETEK         FAIR      40  26  58 CALM      30.39S
LADYSMITH      FAIR      46  32  56 CALM      30.41R
EAU CLAIRE     FAIR      45  33  63 CALM      30.38S
MENOMONIE      FAIR      44  33  63 CALM      30.39F
NEW RICHMOND   FAIR      42  34  71 CALM      30.39R
OSCEOLA        FAIR      45  32  60 CALM      30.41S
$$

WIZ003>005-009-010-017-018-221500-
NORTH CENTRAL WISCONSIN

CITY           SKY/WX    TMP DP  RH WIND       PRES   REMARKS
MANITOWISH WTR NOT AVBL
ARBOR VITAE    FAIR      42  25  51 CALM      30.37S
WOODRUFF       FAIR      42  25  51 CALM      30.37S
RHINELANDER    FAIR      42  27  55 CALM      30.38S
EAGLE RIVER    FAIR      43  21  41 CALM      30.37S
LAND O LAKES   FAIR      49  17  28 CALM      30.39S
PHILLIPS       FAIR      47  31  54 CALM      30.38R
TOMAHAWK       FAIR      43  27  52 CALM      30.39S
MEDFORD        FAIR      44  31  60 E5        30.38S
MERRILL          N/A     42  31  63 CALM      30.39S
$$

WIZ029-030-035-036-043>047-221500-
CENTRAL WISCONSIN

CITY           SKY/WX    TMP DP  RH WIND       PRES   REMARKS
WAUSAU         FAIR      44  30  57 CALM      30.38R
MOSINEE        MOSUNNY   45  32  61 CALM      30.40R
MARSHFIELD     FAIR      47  30  51 E3        30.38R
STEVENS POINT  FAIR      44  28  52 CALM      30.41R
WAUPACA        FAIR      47  31  54 CALM      30.41F
WAUTOMA        FAIR      44  33  65 SE3       30.42R
WISC RAPIDS    FAIR      48  29  47 CALM      30.40S
CAMP DOUGLAS   MOSUNNY   46  34  61 S3        30.39S
$$

WIZ011>013-019>022-031-037>040-048>050-221500-
NORTHEAST WISCONSIN

CITY           SKY/WX    TMP DP  RH WIND       PRES   REMARKS
ANTIGO         FAIR      44  34  69 CALM      30.39S
SHAWANO        FAIR      43  30  61 CALM      30.40S
OCONTO         FAIR      44  31  59 CALM      30.40F
STURGEON BAY   FAIR      48  28  46 CALM      30.42S
GREEN BAY      FAIR      46  34  62 CALM      30.41S
MANITOWOC      FAIR      45  32  60 CALM      30.43R
APPLETON       MOSUNNY   46  32  57 CALM      30.39R
CLINTONVILLE   FAIR      40  27  59 CALM      30.41R
OSHKOSH        FAIR      44  35  70 CALM      30.41R
$$

WIZ032>034-041-042-053>061-221500-
SOUTHWEST WISCONSIN

CITY           SKY/WX    TMP DP  RH WIND       PRES   REMARKS
LA CROSSE      FAIR      45  35  68 N3        30.39R
SPARTA         FAIR      45  34  65 CALM      30.39R
VIROQUA        FAIR      48  34  58 E7        30.37S
BOSCOBEL       FAIR      48  34  58 NE6       30.38S
PRAIRIE DU CHI FAIR      49  31  51 E7        30.36F
PLATTEVILLE    FAIR      50  26  39 E13       30.36F
$$

WIZ056-057-062-063-064-067-068-221500-
SOUTH CENTRAL WISCONSIN

CITY           SKY/WX    TMP DP  RH WIND       PRES   REMARKS
REEDSBURG      FAIR      47  34  59 CALM      30.39R
BARABOO/DELLS  FAIR      43  32  65 CALM      30.39S
LONE ROCK      FAIR      46  37  71 E3        30.39S
MINERAL POINT  FAIR      50  19  29 E6        30.36S
MADISON        PTSUNNY   49  21  33 E8        30.39S
MIDDLETON      FAIR      50  26  40 E9        30.39S
WATERTOWN      FAIR      44  23  42 E3        30.40R
MONROE         FAIR      45  23  42 E6        30.37S
JANESVILLE     PTSUNNY   50  21  32 SE8       30.38R
$$

WIZ051-052-058>065-066-070>072-221500-
SOUTHEAST WISCONSIN

CITY           SKY/WX    TMP DP  RH WIND       PRES   REMARKS
MILWAUKEE      PTSUNNY   47  21  35 E7        30.41R
WAUKESHA       SUNNY     43  21  42 CALM      30.41R
MILWAUKEE/TIMM SUNNY     46  12  25 NE3       30.42R
RACINE         FAIR      49  20  31 NE7       30.41S
BURLINGTON     FAIR      47  23  39 E6        30.39S
KENOSHA        FAIR      49  21  33 E8        30.39S
FOND DU LAC    FAIR      45  30  55 CALM      30.41S
SHEBOYGAN      FAIR      47  30  51 NE3       30.42R
WEST BEND      FAIR      48  23  37 E5        30.41S
JUNEAU         FAIR      46  26  46 CALM      30.41S
$$

LSZ147-162-221500-
LAKE SUPERIOR

STATION/POSITION TIME  TEMP    WIND        PRES    WAVE
                       AIR SEA DIR/SP/G            HT/PER
                 (UTC) (F)     (DEG/KT/KT) (MB)    (FT/S)
DEVILS ISLAND    1400   36     350/  2/  2 1029.9F
SAXON HARBOR     1340   35      CALM  /  1 1028.8R
$$

LMZ867-665-643>646-221500-
LAKE MICHIGAN

STATION/POSITION TIME  TEMP    WIND        PRES    WAVE
                       AIR SEA DIR/SP/G            HT/PER
                 (UTC) (F)     (DEG/KT/KT) (MB)    (FT/S)
NORTHPORT PIER   1340   38                 1029.8S
KEWAUNEE LAKESHO 1400   46      50/  1/  2 1029.0
SHEBOYGAN LAKESH 1400   39      10/  6/  7 1030.6R
PORT WASHINGTON  1330   44      50/  2/  3 1030.8R
MILWAUKEE LAKESH 1400   41      40/  7/  8   N/A
KENOSHA   LAKESH 1400   42                 1029.1
$$

TC  - TEMPERATURE IN CELSIUS
VSB - VISIBILITY IN STATUTE MILES
WCI - WIND CHILL INDEX
HX  - HEAT INDEX




USA.gov is the U.S. government's official web portal to all federal, state and local government web resources and services.